N50VG LPVL-LEIB

Flight info

Callsign N50VG
Flight time N/A
Altitude 26000
Route PRT UL155 ADORO L155 NVS M871 NANDO T257 MABUX M871 LASPO Z224 VARUT
Aircraft SF50/L-BDGRSWY/LB2U2

Departure

Time 2026-04-30 18:37
Airport Vilar de Luz Airfield (LPVL)

Arrival

Time N/A
Airport Ibiza Airport (LEIB)
Time Latitude Longitude Altitude Speed Heading
2026-04-30 18:25 41.27665 -8.51684 753 ft 0 kts 93°
2026-04-30 18:35 41.27665 -8.51682 751 ft 1 kts 93°
2026-04-30 18:36 41.27652 -8.51599 752 ft 9 kts 102°
2026-04-30 18:36 41.27671 -8.51566 750 ft 0 kts 326°
2026-04-30 18:36 41.27782 -8.51637 750 ft 50 kts 334°
2026-04-30 18:37 41.28291 -8.51956 844 ft 98 kts 332°
2026-04-30 18:37 41.28924 -8.52270 1282 ft 102 kts 342°
2026-04-30 18:37 41.29662 -8.52288 1695 ft 112 kts 15°
2026-04-30 18:37 41.30387 -8.51650 2032 ft 132 kts 49°
2026-04-30 18:38 41.30548 -8.50381 2462 ft 155 kts 101°
2026-04-30 18:38 41.30458 -8.48868 2922 ft 175 kts 88°
2026-04-30 18:38 41.30550 -8.47254 3651 ft 174 kts 89°
2026-04-30 18:38 41.30621 -8.45661 4095 ft 178 kts 87°
2026-04-30 18:39 41.30751 -8.44042 4750 ft 174 kts 85°
2026-04-30 18:39 41.30888 -8.42441 5333 ft 175 kts 86°
2026-04-30 18:39 41.31024 -8.40823 5868 ft 176 kts 86°
2026-04-30 18:39 41.31166 -8.39192 6419 ft 178 kts 86°
2026-04-30 18:40 41.31312 -8.37542 6929 ft 180 kts 86°
2026-04-30 18:40 41.31461 -8.35900 7400 ft 183 kts 85°
2026-04-30 18:40 41.31614 -8.34210 7884 ft 185 kts 85°
2026-04-30 18:40 41.31773 -8.32501 8352 ft 188 kts 85°
2026-04-30 18:41 41.31933 -8.30767 8826 ft 190 kts 85°
2026-04-30 18:41 41.32098 -8.29009 9283 ft 193 kts 85°
2026-04-30 18:41 41.32265 -8.27230 9735 ft 195 kts 85°
2026-04-30 18:41 41.32435 -8.25429 10177 ft 197 kts 84°
2026-04-30 18:42 41.32607 -8.23610 10580 ft 199 kts 85°
2026-04-30 18:42 41.32646 -8.19897 11344 ft 202 kts 93°
2026-04-30 18:42 41.32623 -8.18032 11791 ft 202 kts 94°
2026-04-30 18:45 41.32632 -7.98630 15783 ft 217 kts 92°
2026-04-30 18:45 41.32648 -7.96620 16168 ft 218 kts 92°
2026-04-30 18:45 41.32660 -7.94592 16554 ft 219 kts 93°
2026-04-30 18:46 41.32678 -7.92559 16967 ft 220 kts 92°
2026-04-30 18:46 41.32702 -7.90513 17347 ft 222 kts 92°
2026-04-30 18:46 41.32727 -7.88456 17732 ft 223 kts 93°
2026-04-30 18:46 41.32756 -7.86384 18127 ft 225 kts 92°
2026-04-30 18:47 41.32783 -7.84297 18490 ft 227 kts 92°
2026-04-30 18:47 41.32812 -7.82160 18714 ft 234 kts 92°
2026-04-30 18:47 41.32843 -7.79992 19089 ft 234 kts 92°
2026-04-30 18:47 41.32879 -7.77821 19440 ft 235 kts 92°
2026-04-30 18:48 41.32914 -7.75667 19796 ft 237 kts 92°
2026-04-30 18:48 41.32953 -7.73468 20155 ft 238 kts 92°
2026-04-30 18:48 41.32995 -7.71263 20506 ft 239 kts 92°
2026-04-30 18:48 41.33037 -7.69046 20855 ft 240 kts 92°
2026-04-30 18:49 41.33082 -7.66818 21198 ft 242 kts 92°
2026-04-30 18:49 41.33130 -7.64578 21541 ft 243 kts 92°
2026-04-30 18:49 41.33181 -7.62327 21882 ft 244 kts 92°
2026-04-30 18:49 41.33235 -7.60063 22220 ft 245 kts 92°
2026-04-30 18:50 41.33291 -7.57787 22550 ft 247 kts 92°
2026-04-30 18:50 41.33348 -7.55499 22893 ft 248 kts 92°
2026-04-30 18:50 41.33408 -7.53196 23228 ft 249 kts 92°
2026-04-30 18:50 41.33467 -7.50885 23547 ft 251 kts 92°
2026-04-30 18:51 41.33528 -7.48557 23825 ft 252 kts 92°
2026-04-30 18:51 41.33598 -7.46220 24079 ft 253 kts 90°
2026-04-30 18:51 41.33754 -7.43972 24295 ft 255 kts 89°
2026-04-30 18:51 41.33924 -7.41621 24534 ft 256 kts 87°
2026-04-30 18:52 41.34140 -7.39267 24822 ft 254 kts 87°
2026-04-30 18:52 41.34363 -7.36975 25290 ft 245 kts 86°
2026-04-30 18:52 41.34590 -7.34775 25821 ft 233 kts 86°
2026-04-30 18:52 41.34815 -7.32642 26074 ft 238 kts 86°
2026-04-30 18:53 41.35046 -7.30425 26075 ft 251 kts 86°
2026-04-30 18:53 41.35290 -7.28038 26090 ft 261 kts 86°
2026-04-30 18:53 41.35526 -7.25658 26088 ft 266 kts 86°
2026-04-30 18:53 41.35769 -7.23173 26088 ft 275 kts 86°
2026-04-30 18:54 41.36016 -7.20614 26087 ft 282 kts 86°
2026-04-30 18:54 41.36267 -7.17988 26085 ft 288 kts 86°
2026-04-30 18:54 41.36519 -7.15321 26090 ft 293 kts 86°
2026-04-30 18:54 41.36772 -7.12606 26089 ft 297 kts 86°
2026-04-30 18:55 41.37026 -7.09857 26088 ft 301 kts 86°
2026-04-30 18:55 41.37541 -7.04257 26082 ft 308 kts 86°
2026-04-30 18:55 41.37800 -7.01421 26080 ft 311 kts 86°
2026-04-30 18:56 41.38526 -6.95949 26069 ft 280 kts 81°
2026-04-30 18:56 41.38926 -6.93492 26062 ft 265 kts 82°
2026-04-30 18:56 41.39263 -6.91108 26062 ft 260 kts 83°
2026-04-30 18:57 41.39943 -6.86366 26068 ft 262 kts 83°
2026-04-30 18:57 41.40269 -6.84141 26066 ft 263 kts 83°
2026-04-30 18:57 41.40624 -6.81699 26067 ft 264 kts 83°
2026-04-30 18:58 41.41320 -6.76898 26071 ft 264 kts 83°
2026-04-30 18:58 41.41667 -6.74494 26072 ft 264 kts 83°
2026-04-30 18:58 41.42014 -6.72089 26068 ft 264 kts 83°
2026-04-30 18:59 41.42707 -6.67288 26070 ft 264 kts 83°
2026-04-30 19:00 41.43740 -6.60076 26072 ft 264 kts 83°
2026-04-30 19:00 41.44085 -6.57669 26073 ft 264 kts 83°
2026-04-30 19:00 41.44770 -6.52855 26072 ft 264 kts 83°
2026-04-30 19:01 41.45453 -6.48040 26079 ft 264 kts 83°
2026-04-30 19:01 41.45795 -6.45635 26083 ft 264 kts 83°
2026-04-30 19:02 41.46462 -6.40910 26085 ft 264 kts 83°
2026-04-30 19:02 41.47138 -6.36120 26082 ft 264 kts 83°
2026-04-30 19:03 41.47816 -6.31298 26088 ft 264 kts 83°
2026-04-30 19:03 41.48405 -6.26476 26089 ft 262 kts 88°
2026-04-30 19:04 41.48759 -6.21630 26087 ft 263 kts 88°
2026-04-30 19:04 41.49131 -6.16774 26089 ft 263 kts 88°
2026-04-30 19:05 41.49496 -6.11918 26085 ft 263 kts 88°
2026-04-30 19:05 41.49861 -6.07063 26089 ft 263 kts 88°
2026-04-30 19:06 41.50221 -6.02242 26090 ft 263 kts 88°
2026-04-30 19:06 41.50401 -5.99815 26092 ft 263 kts 88°
2026-04-30 19:06 41.50702 -5.95746 26088 ft 263 kts 88°
2026-04-30 19:07 41.51061 -5.90885 26090 ft 263 kts 88°
2026-04-30 19:07 41.51236 -5.88486 26093 ft 263 kts 88°
2026-04-30 19:08 41.51591 -5.83631 26094 ft 263 kts 88°
2026-04-30 19:08 41.51943 -5.78779 26094 ft 263 kts 88°
2026-04-30 19:08 41.52117 -5.76354 26095 ft 263 kts 88°
2026-04-30 19:09 41.52467 -5.71490 26097 ft 263 kts 88°
2026-04-30 19:09 41.52641 -5.69062 26098 ft 263 kts 88°
2026-04-30 19:09 41.52699 -5.66640 26096 ft 260 kts 99°
2026-04-30 19:10 41.51440 -5.62297 26098 ft 252 kts 129°
2026-04-30 19:10 41.48951 -5.59037 26099 ft 249 kts 140°
2026-04-30 19:11 41.47702 -5.57486 26102 ft 249 kts 140°
2026-04-30 19:11 41.45150 -5.54362 26103 ft 249 kts 140°
2026-04-30 19:11 41.43875 -5.52803 26102 ft 249 kts 141°
2026-04-30 19:12 41.42599 -5.51244 26097 ft 249 kts 141°
2026-04-30 19:12 41.41326 -5.49689 26108 ft 249 kts 141°
2026-04-30 19:12 41.40049 -5.48131 26097 ft 249 kts 141°
2026-04-30 19:13 41.37496 -5.45018 26103 ft 249 kts 141°
2026-04-30 19:13 41.34941 -5.41905 26101 ft 249 kts 141°
2026-04-30 19:13 41.33662 -5.40349 26099 ft 249 kts 141°
2026-04-30 19:14 41.32402 -5.38814 26100 ft 249 kts 141°
2026-04-30 19:14 41.31125 -5.37263 26100 ft 249 kts 141°
2026-04-30 19:14 41.29850 -5.35711 26106 ft 249 kts 141°
2026-04-30 19:14 41.28572 -5.34158 26103 ft 249 kts 141°
2026-04-30 19:15 41.27294 -5.32606 26098 ft 249 kts 141°
2026-04-30 19:15 41.24734 -5.29500 26100 ft 249 kts 141°
2026-04-30 19:15 41.23453 -5.27945 26101 ft 248 kts 141°
2026-04-30 19:16 41.22190 -5.26417 26102 ft 249 kts 141°
2026-04-30 19:16 41.20913 -5.24870 26104 ft 249 kts 141°
2026-04-30 19:16 41.18354 -5.21774 26103 ft 249 kts 141°
2026-04-30 19:17 41.17075 -5.20226 26099 ft 249 kts 141°
2026-04-30 19:17 41.14518 -5.17138 26099 ft 249 kts 141°
2026-04-30 19:17 41.13240 -5.15595 26102 ft 248 kts 141°
2026-04-30 19:18 41.11115 -5.13032 26099 ft 249 kts 141°
2026-04-30 19:18 41.09404 -5.10969 26102 ft 249 kts 141°
2026-04-30 19:18 41.08121 -5.09426 26098 ft 249 kts 141°
2026-04-30 19:19 41.06840 -5.07885 26099 ft 249 kts 141°
2026-04-30 19:19 41.05559 -5.06345 26097 ft 248 kts 141°
2026-04-30 19:19 41.03013 -5.03287 26094 ft 248 kts 141°
2026-04-30 19:20 41.01732 -5.01748 26098 ft 248 kts 141°
2026-04-30 19:20 41.00451 -5.00213 26103 ft 248 kts 141°
2026-04-30 19:20 40.97886 -4.97136 26097 ft 248 kts 141°
2026-04-30 19:21 40.96604 -4.95601 26098 ft 248 kts 141°
2026-04-30 19:21 40.94042 -4.92536 26098 ft 248 kts 141°
2026-04-30 19:22 40.91481 -4.89474 26098 ft 248 kts 141°
2026-04-30 19:22 40.87635 -4.84883 26098 ft 248 kts 141°
2026-04-30 19:23 40.83804 -4.80316 26101 ft 248 kts 141°
2026-04-30 19:24 40.81268 -4.77294 26101 ft 248 kts 141°
2026-04-30 19:24 40.80431 -4.76298 26099 ft 248 kts 141°
2026-04-30 19:24 40.77870 -4.73255 26099 ft 254 kts 141°
2026-04-30 19:25 40.73752 -4.68365 26121 ft 275 kts 141°
2026-04-30 19:26 40.70866 -4.64921 26113 ft 283 kts 138°
2026-04-30 19:26 40.69090 -4.60176 26105 ft 297 kts 111°
2026-04-30 19:26 40.68416 -4.57597 26116 ft 298 kts 114°
2026-04-30 19:27 40.66828 -4.52491 26116 ft 304 kts 115°
2026-04-30 19:27 40.65274 -4.47264 26119 ft 309 kts 114°
2026-04-30 19:28 40.64478 -4.44628 26118 ft 311 kts 115°
2026-04-30 19:28 40.62868 -4.39314 26116 ft 314 kts 115°
2026-04-30 19:29 40.61247 -4.33947 26118 ft 317 kts 115°
2026-04-30 19:29 40.60429 -4.31250 26116 ft 318 kts 115°
2026-04-30 19:30 40.57968 -4.23152 26112 ft 320 kts 115°
2026-04-30 19:30 40.56314 -4.17719 26105 ft 320 kts 115°
2026-04-30 19:31 40.54658 -4.12291 26104 ft 320 kts 115°
2026-04-30 19:31 40.53829 -4.09582 26103 ft 320 kts 115°
2026-04-30 19:31 40.52168 -4.04154 26095 ft 320 kts 115°
2026-04-30 19:32 40.51335 -4.01438 26096 ft 320 kts 115°
2026-04-30 19:32 40.50504 -3.98728 26088 ft 320 kts 115°
2026-04-30 19:32 40.49668 -3.96008 26086 ft 320 kts 115°
2026-04-30 19:32 40.48834 -3.93291 26087 ft 320 kts 115°
2026-04-30 19:33 40.48010 -3.90614 26083 ft 320 kts 115°
2026-04-30 19:33 40.47175 -3.87903 26081 ft 320 kts 115°
2026-04-30 19:33 40.46339 -3.85192 26079 ft 320 kts 115°
2026-04-30 19:33 40.45503 -3.82479 26075 ft 321 kts 115°
2026-04-30 19:34 40.44665 -3.79767 26073 ft 321 kts 115°
2026-04-30 19:34 40.43826 -3.77054 26073 ft 321 kts 115°
2026-04-30 19:34 40.42146 -3.71631 26069 ft 320 kts 115°
2026-04-30 19:35 40.41307 -3.68925 26069 ft 320 kts 115°
2026-04-30 19:35 40.40467 -3.66213 26068 ft 320 kts 115°
2026-04-30 19:35 40.39626 -3.63508 26068 ft 320 kts 115°
2026-04-30 19:35 40.38783 -3.60799 26068 ft 321 kts 115°
2026-04-30 19:36 40.37940 -3.58091 26068 ft 321 kts 115°
2026-04-30 19:36 40.37096 -3.55385 26067 ft 321 kts 115°
2026-04-30 19:36 40.35403 -3.49966 26070 ft 321 kts 115°
2026-04-30 19:37 40.34556 -3.47258 26070 ft 321 kts 115°
2026-04-30 19:37 40.33708 -3.44552 26070 ft 321 kts 115°
2026-04-30 19:37 40.32872 -3.41879 26070 ft 321 kts 115°
2026-04-30 19:37 40.32021 -3.39168 26070 ft 321 kts 115°
2026-04-30 19:38 40.31171 -3.36460 26069 ft 321 kts 115°
2026-04-30 19:38 40.30317 -3.33750 26070 ft 321 kts 115°
2026-04-30 19:38 40.29465 -3.31036 26069 ft 321 kts 115°
2026-04-30 19:38 40.28614 -3.28334 26072 ft 321 kts 115°
2026-04-30 19:39 40.27760 -3.25630 26074 ft 321 kts 115°
2026-04-30 19:39 40.26904 -3.22935 26027 ft 315 kts 117°
2026-04-30 19:39 40.25194 -3.21192 24304 ft 333 kts 172°
2026-04-30 19:39 40.23333 -3.22288 23750 ft 285 kts 225°
2026-04-30 19:40 40.21966 -3.24189 22261 ft 284 kts 225°
2026-04-30 19:40 40.20722 -3.25915 21956 ft 245 kts 229°
2026-04-30 19:40 40.19740 -3.27737 19721 ft 259 kts 240°
2026-04-30 19:40 40.18822 -3.29986 17474 ft 290 kts 234°
2026-04-30 19:41 40.17751 -3.31602 13824 ft 166 kts 216°
2026-04-30 19:41 40.16758 -3.33118 6431 ft 293 kts 238°
2026-04-30 19:41 40.16241 -3.35855 3156 ft 316 kts 271°
2026-04-30 19:41 40.16068 -3.38191 2938 ft 231 kts 257°
2026-04-30 19:42 40.15291 -3.38482 3124 ft 147 kts 82°
2026-04-30 19:42 40.15497 -3.37318 2712 ft 104 kts 58°
2026-04-30 19:42 40.15997 -3.37197 2677 ft 89 kts 290°
2026-04-30 19:42 40.15820 -3.37945 2565 ft 74 kts 261°
2026-04-30 19:43 40.15776 -3.38225 2558 ft 0 kts